UAE33T OMDB-EGPF

Flight info

Callsign UAE33T
Flight time N/A
Altitude 36000
Route ANVIX L223 TARDI N629 BOTAM Y855 LAKLU Q204 NALKI G652 TOKRA DCT ALROK DCT BOSOB/N0496F380 DCT ITRUX Y511 PMA Z712 WEJ L677 GESON Q777 AZMEY/N0486F400 Q777 RASDA DCT OTHON DCT VAXOS UN128 RDS UL609 MES DCT DISOR DCT LONTA UL608 DOLEV DCT IRDIV DCT PODET DCT SIMBA DCT EXITI DCT GASKA DCT MAPOX DCT AMGOD DCT GODOS DCT NATEB/N0468F240 Y96 AGPED
Aircraft A359/H-SDE2E3GHIJ3J4J5LM1ORWXY/LB1D1

Departure

Time 2026-04-30 08:29
Airport Dubai International Airport (OMDB)

Arrival

Time N/A
Airport Glasgow Airport (EGPF)
Time Latitude Longitude Altitude Speed Heading
2026-04-30 07:45 25.24065 55.37488 27 ft 0 kts 355°
2026-04-30 07:47 25.24108 55.37401 27 ft 0 kts 31°
2026-04-30 08:13 25.24105 55.37399 27 ft 3 kts 31°
2026-04-30 08:13 25.24085 55.37386 27 ft 4 kts 31°
2026-04-30 08:13 25.24071 55.37376 25 ft 4 kts 31°
2026-04-30 08:14 25.24052 55.37363 25 ft 4 kts 47°
2026-04-30 08:14 25.24041 55.37339 25 ft 4 kts 92°
2026-04-30 08:14 25.24047 55.37312 24 ft 4 kts 120°
2026-04-30 08:14 25.24061 55.37287 25 ft 4 kts 122°
2026-04-30 08:15 25.24069 55.37272 25 ft 2 kts 122°
2026-04-30 08:20 25.24060 55.37289 25 ft 7 kts 121°
2026-04-30 08:20 25.24032 55.37338 26 ft 8 kts 121°
2026-04-30 08:21 25.23999 55.37398 27 ft 11 kts 122°
2026-04-30 08:21 25.23966 55.37483 27 ft 12 kts 97°
2026-04-30 08:21 25.23987 55.37576 27 ft 13 kts 59°
2026-04-30 08:21 25.24058 55.37637 27 ft 13 kts 31°
2026-04-30 08:22 25.24139 55.37691 27 ft 14 kts 31°
2026-04-30 08:22 25.24224 55.37748 27 ft 14 kts 31°
2026-04-30 08:22 25.24298 55.37798 27 ft 9 kts 32°
2026-04-30 08:22 25.24333 55.37823 28 ft 6 kts 33°
2026-04-30 08:23 25.24347 55.37834 28 ft 0 kts 34°
2026-04-30 08:23 25.24351 55.37837 28 ft 5 kts 34°
2026-04-30 08:23 25.24397 55.37871 29 ft 8 kts 34°
2026-04-30 08:24 25.24446 55.37909 30 ft 11 kts 34°
2026-04-30 08:24 25.24520 55.37965 31 ft 14 kts 34°
2026-04-30 08:24 25.24598 55.38024 29 ft 11 kts 33°
2026-04-30 08:24 25.24629 55.38045 29 ft 0 kts 32°
2026-04-30 08:25 25.24631 55.38046 29 ft 3 kts 32°
2026-04-30 08:25 25.24639 55.38052 30 ft 0 kts 31°
2026-04-30 08:26 25.24645 55.38056 30 ft 3 kts 31°
2026-04-30 08:26 25.24682 55.38081 31 ft 9 kts 31°
2026-04-30 08:26 25.24747 55.38122 32 ft 9 kts 19°
2026-04-30 08:26 25.24757 55.38118 32 ft 2 kts 328°
2026-04-30 08:27 25.24762 55.38104 32 ft 1 kts 298°
2026-04-30 08:27 25.24764 55.38101 32 ft 0 kts 299°
2026-04-30 08:27 25.24765 55.38100 32 ft 2 kts 299°
2026-04-30 08:28 25.24855 55.37938 31 ft 55 kts 301°
2026-04-30 08:28 25.25165 55.37382 33 ft 112 kts 301°
2026-04-30 08:28 25.25661 55.36485 31 ft 161 kts 302°
2026-04-30 08:28 25.26276 55.35343 442 ft 171 kts 301°
2026-04-30 08:29 25.26876 55.34276 1141 ft 167 kts 304°
2026-04-30 08:29 25.27528 55.33120 1481 ft 187 kts 303°
2026-04-30 08:29 25.28240 55.31848 1702 ft 204 kts 304°
2026-04-30 08:29 25.28966 55.30439 2053 ft 216 kts 296°
2026-04-30 08:30 25.29166 55.28771 2607 ft 227 kts 263°
2026-04-30 08:30 25.28633 55.27122 3277 ft 229 kts 251°
2026-04-30 08:30 25.27949 55.25535 3848 ft 231 kts 249°
2026-04-30 08:30 25.27244 55.23923 4400 ft 233 kts 248°
2026-04-30 08:31 25.26537 55.22302 4933 ft 236 kts 248°
2026-04-30 08:31 25.25826 55.20656 5434 ft 239 kts 247°
2026-04-30 08:31 25.25104 55.18994 5965 ft 241 kts 245°
2026-04-30 08:31 25.24081 55.17509 6451 ft 248 kts 220°
2026-04-30 08:32 25.22498 55.16738 6932 ft 257 kts 189°
2026-04-30 08:32 25.20690 55.16751 7431 ft 264 kts 175°
2026-04-30 08:32 25.18959 55.17375 8004 ft 270 kts 151°
2026-04-30 08:32 25.17586 55.18840 8406 ft 286 kts 125°
2026-04-30 08:33 25.16584 55.20807 8751 ft 299 kts 119°
2026-04-30 08:33 25.15634 55.22886 9280 ft 306 kts 120°
2026-04-30 08:33 25.14659 55.24993 9826 ft 310 kts 121°
2026-04-30 08:33 25.13661 55.27115 10372 ft 314 kts 121°
2026-04-30 08:34 25.12644 55.29262 10931 ft 317 kts 121°
2026-04-30 08:34 25.11607 55.31430 11493 ft 320 kts 121°
2026-04-30 08:34 25.10559 55.33607 12066 ft 323 kts 123°
2026-04-30 08:34 25.09564 55.35812 12604 ft 327 kts 120°
2026-04-30 08:35 25.08613 55.38111 13159 ft 330 kts 119°
2026-04-30 08:35 25.07663 55.40433 13709 ft 334 kts 119°
2026-04-30 08:35 25.06709 55.42777 14211 ft 338 kts 118°
2026-04-30 08:35 25.05770 55.45205 14464 ft 351 kts 117°
2026-04-30 08:36 25.04802 55.47740 14662 ft 365 kts 117°
2026-04-30 08:36 25.03793 55.50371 14858 ft 378 kts 117°
2026-04-30 08:36 25.02749 55.53082 15048 ft 391 kts 117°
2026-04-30 08:36 25.01586 55.55830 15250 ft 399 kts 123°
2026-04-30 08:37 25.00194 55.58515 15436 ft 409 kts 125°
2026-04-30 08:37 24.98720 55.61242 15614 ft 419 kts 125°
2026-04-30 08:37 24.97207 55.64034 15785 ft 428 kts 125°
2026-04-30 08:37 24.96194 55.65908 15981 ft 431 kts 125°
2026-04-30 08:38 24.94647 55.68758 16354 ft 433 kts 126°
2026-04-30 08:38 24.92966 55.71515 16740 ft 434 kts 130°
2026-04-30 08:38 24.90596 55.75109 17211 ft 438 kts 131°
2026-04-30 08:38 24.89377 55.76942 17464 ft 440 kts 131°
2026-04-30 08:39 24.87563 55.79671 17844 ft 443 kts 131°
2026-04-30 08:39 24.85757 55.82389 18173 ft 446 kts 131°
2026-04-30 08:39 24.83918 55.85157 18501 ft 448 kts 131°
2026-04-30 08:39 24.82063 55.87927 18847 ft 450 kts 132°
2026-04-30 08:40 24.80184 55.90696 19143 ft 453 kts 132°
2026-04-30 08:40 24.78244 55.93431 19413 ft 453 kts 136°
2026-04-30 08:40 24.76093 55.95954 19751 ft 452 kts 141°
2026-04-30 08:40 24.73819 55.98346 20086 ft 453 kts 143°
2026-04-30 08:41 24.71486 56.00684 20423 ft 455 kts 144°
2026-04-30 08:41 24.69126 56.03019 20797 ft 457 kts 144°
2026-04-30 08:41 24.66765 56.05373 21154 ft 459 kts 144°
2026-04-30 08:41 24.64398 56.07758 21488 ft 462 kts 143°
2026-04-30 08:42 24.62062 56.10134 21811 ft 465 kts 143°
2026-04-30 08:42 24.59691 56.12562 22157 ft 468 kts 143°
2026-04-30 08:42 24.57355 56.15073 22483 ft 473 kts 139°
2026-04-30 08:42 24.55128 56.17752 22846 ft 476 kts 138°
2026-04-30 08:43 24.52918 56.20498 23131 ft 481 kts 137°
2026-04-30 08:43 24.50717 56.23289 23486 ft 483 kts 137°
2026-04-30 08:43 24.48527 56.26090 23775 ft 485 kts 137°
2026-04-30 08:43 24.46327 56.28906 24036 ft 487 kts 137°
2026-04-30 08:44 24.44117 56.31735 24278 ft 489 kts 136°
2026-04-30 08:44 24.41888 56.34579 24539 ft 492 kts 136°
2026-04-30 08:44 24.39655 56.37424 24867 ft 492 kts 136°
2026-04-30 08:44 24.37442 56.40235 25145 ft 494 kts 136°
2026-04-30 08:45 24.35191 56.43089 25429 ft 496 kts 136°
2026-04-30 08:45 24.32925 56.45960 25735 ft 498 kts 136°
2026-04-30 08:45 24.30655 56.48835 26057 ft 500 kts 136°
2026-04-30 08:45 24.28395 56.51739 26355 ft 503 kts 134°
2026-04-30 08:46 24.26253 56.54798 26668 ft 507 kts 131°
2026-04-30 08:46 24.24199 56.57952 26989 ft 510 kts 130°
2026-04-30 08:46 24.22168 56.61143 27343 ft 511 kts 130°
2026-04-30 08:46 24.20122 56.64349 27658 ft 513 kts 130°
2026-04-30 08:47 24.18057 56.67542 27963 ft 515 kts 130°
2026-04-30 08:47 24.15960 56.70743 28236 ft 517 kts 131°
2026-04-30 08:47 24.13872 56.73900 28511 ft 519 kts 131°
2026-04-30 08:47 24.11741 56.77103 28796 ft 521 kts 131°
2026-04-30 08:48 24.09595 56.80319 29077 ft 523 kts 131°
2026-04-30 08:48 24.07351 56.83451 29350 ft 521 kts 137°
2026-04-30 08:48 24.04764 56.86202 29567 ft 517 kts 146°
2026-04-30 08:48 24.01828 56.88435 29801 ft 511 kts 156°
2026-04-30 08:49 23.98616 56.90058 29994 ft 506 kts 166°
2026-04-30 08:49 23.95261 56.91170 30258 ft 502 kts 170°
2026-04-30 08:49 23.91886 56.92125 30570 ft 500 kts 172°
2026-04-30 08:49 23.88555 56.93000 30882 ft 498 kts 172°
2026-04-30 08:50 23.85144 56.93873 31205 ft 497 kts 173°
2026-04-30 08:50 23.81827 56.94721 31475 ft 495 kts 174°
2026-04-30 08:50 23.78418 56.95553 31641 ft 496 kts 174°
2026-04-30 08:50 23.75048 56.96363 31821 ft 496 kts 174°
2026-04-30 08:51 23.71726 56.97182 32066 ft 495 kts 174°
2026-04-30 08:51 23.68367 56.98036 32288 ft 495 kts 173°
2026-04-30 08:51 23.65022 56.98907 32528 ft 494 kts 173°
2026-04-30 08:51 23.61688 56.99791 32742 ft 493 kts 173°
2026-04-30 08:52 23.58355 57.00680 32948 ft 493 kts 173°
2026-04-30 08:52 23.55023 57.01571 33176 ft 492 kts 173°
2026-04-30 08:52 23.51712 57.02458 33497 ft 488 kts 173°
2026-04-30 08:52 23.48422 57.03336 33750 ft 486 kts 173°
2026-04-30 08:53 23.45131 57.04211 33933 ft 486 kts 173°
2026-04-30 08:53 23.41836 57.05042 34109 ft 484 kts 176°
2026-04-30 08:53 23.38556 57.05498 34293 ft 478 kts 184°
2026-04-30 08:53 23.35240 57.05450 34408 ft 475 kts 192°
2026-04-30 08:54 23.31973 57.04920 34475 ft 474 kts 197°
2026-04-30 08:54 23.25516 57.03454 34769 ft 472 kts 199°
2026-04-30 08:54 23.22314 57.02667 34932 ft 471 kts 199°
2026-04-30 08:55 23.19121 57.01881 35067 ft 470 kts 199°
2026-04-30 08:55 23.15933 57.01105 35193 ft 470 kts 198°
2026-04-30 08:55 23.12734 57.00338 35283 ft 471 kts 198°
2026-04-30 08:55 23.09539 56.99581 35438 ft 470 kts 198°
2026-04-30 08:56 23.06349 56.98832 35592 ft 469 kts 198°
2026-04-30 08:56 23.03198 56.98094 35716 ft 469 kts 198°
2026-04-30 08:56 23.00004 56.97349 35822 ft 469 kts 198°
2026-04-30 08:57 22.93574 56.95843 35697 ft 476 kts 198°
2026-04-30 08:57 22.90371 56.94956 35840 ft 472 kts 204°
2026-04-30 08:57 22.87330 56.93657 35889 ft 467 kts 211°
2026-04-30 08:58 22.82085 56.89725 35892 ft 460 kts 229°
2026-04-30 08:58 22.78271 56.84208 35881 ft 459 kts 244°
2026-04-30 08:59 22.75274 56.78057 35869 ft 464 kts 246°
2026-04-30 08:59 22.72355 56.71801 35857 ft 466 kts 246°
2026-04-30 09:00 22.69393 56.65548 35861 ft 466 kts 245°
2026-04-30 09:00 22.66393 56.59310 35853 ft 466 kts 245°
2026-04-30 09:01 22.63391 56.53099 35847 ft 466 kts 245°
2026-04-30 09:01 22.60397 56.46910 35845 ft 467 kts 245°
2026-04-30 09:02 22.55864 56.37550 35837 ft 468 kts 245°
2026-04-30 09:02 22.52838 56.31314 35837 ft 468 kts 245°
2026-04-30 09:03 22.49817 56.25077 35835 ft 468 kts 245°
2026-04-30 09:03 22.46812 56.18882 35834 ft 468 kts 245°
2026-04-30 09:04 22.43789 56.12659 35831 ft 467 kts 245°
2026-04-30 09:04 22.40763 56.06439 35826 ft 467 kts 245°
2026-04-30 09:05 22.37733 56.00223 35826 ft 467 kts 245°
2026-04-30 09:05 22.34688 55.94016 35824 ft 467 kts 245°
2026-04-30 09:06 22.31634 55.87803 35818 ft 467 kts 245°
2026-04-30 09:06 22.28581 55.81599 35818 ft 467 kts 245°
2026-04-30 09:07 22.25534 55.75406 35815 ft 467 kts 245°
2026-04-30 09:07 22.22510 55.69243 35815 ft 467 kts 245°
2026-04-30 09:08 22.19464 55.63046 35809 ft 467 kts 245°
2026-04-30 09:08 22.16748 55.56692 35815 ft 465 kts 254°
2026-04-30 09:09 22.15547 55.49847 35807 ft 467 kts 265°
2026-04-30 09:09 22.14944 55.42837 35808 ft 471 kts 266°
2026-04-30 09:10 22.14423 55.35818 35803 ft 472 kts 266°
2026-04-30 09:10 22.13873 55.28764 35805 ft 472 kts 266°
2026-04-30 09:11 22.13293 55.21710 35805 ft 472 kts 266°
2026-04-30 09:11 22.12703 55.14646 35804 ft 472 kts 266°
2026-04-30 09:12 22.12113 55.07625 35801 ft 472 kts 266°
2026-04-30 09:12 22.11518 55.00574 35805 ft 472 kts 266°
2026-04-30 09:13 22.10919 54.93513 35804 ft 472 kts 265°
2026-04-30 09:13 22.10318 54.86448 35805 ft 473 kts 265°
2026-04-30 09:14 22.09714 54.79385 35803 ft 473 kts 265°
2026-04-30 09:14 22.09108 54.72330 35808 ft 473 kts 265°
2026-04-30 09:15 22.08501 54.65307 35804 ft 473 kts 265°
2026-04-30 09:15 22.07887 54.58243 35804 ft 473 kts 265°
2026-04-30 09:16 22.07271 54.51187 35807 ft 473 kts 265°
2026-04-30 09:16 22.06650 54.44113 35808 ft 473 kts 265°
2026-04-30 09:17 22.06025 54.37040 35807 ft 474 kts 265°
2026-04-30 09:17 22.05403 54.30017 35807 ft 474 kts 265°
2026-04-30 09:18 22.04775 54.22950 35810 ft 474 kts 265°
2026-04-30 09:18 22.04141 54.15879 35811 ft 474 kts 265°
2026-04-30 09:19 22.03505 54.08806 35807 ft 474 kts 265°
2026-04-30 09:19 22.02865 54.01717 35819 ft 474 kts 265°
2026-04-30 09:20 22.02227 53.94696 35808 ft 473 kts 265°
2026-04-30 09:20 22.01582 53.87632 35814 ft 473 kts 265°
2026-04-30 09:21 22.00936 53.80574 35808 ft 473 kts 265°
2026-04-30 09:21 22.00288 53.73515 35804 ft 473 kts 265°
2026-04-30 09:22 21.99632 53.66456 35809 ft 474 kts 265°
2026-04-30 09:22 21.98973 53.59386 35813 ft 474 kts 265°
2026-04-30 09:23 21.98313 53.52313 35807 ft 474 kts 265°
2026-04-30 09:23 21.97654 53.45296 35809 ft 474 kts 265°
2026-04-30 09:24 21.96988 53.38231 35808 ft 474 kts 265°
2026-04-30 09:24 21.96319 53.31172 35811 ft 474 kts 265°
2026-04-30 09:25 21.95646 53.24106 35812 ft 474 kts 265°
2026-04-30 09:25 21.94970 53.17034 35806 ft 475 kts 265°
2026-04-30 09:26 21.94294 53.09991 35812 ft 475 kts 265°
2026-04-30 09:26 21.93611 53.02907 35813 ft 475 kts 265°
2026-04-30 09:27 21.92924 52.95818 35809 ft 476 kts 265°
2026-04-30 09:27 21.92235 52.88730 35806 ft 476 kts 265°
2026-04-30 09:28 21.91542 52.81638 35811 ft 476 kts 265°
2026-04-30 09:28 21.90849 52.74541 35814 ft 477 kts 266°
2026-04-30 09:29 21.91057 52.67431 35806 ft 476 kts 280°
2026-04-30 09:29 21.92224 52.60424 35809 ft 480 kts 282°
2026-04-30 09:30 21.93564 52.53347 35813 ft 481 kts 282°
2026-04-30 09:30 21.94677 52.47473 35811 ft 481 kts 282°
2026-04-30 09:31 21.95988 52.40395 35808 ft 481 kts 282°
2026-04-30 09:31 21.97492 52.32166 35813 ft 481 kts 282°
2026-04-30 09:32 21.98570 52.26236 35811 ft 481 kts 282°
2026-04-30 09:32 21.99848 52.19205 35816 ft 481 kts 282°
2026-04-30 09:33 22.01131 52.12126 35806 ft 481 kts 282°
2026-04-30 09:33 22.02412 52.05044 35815 ft 481 kts 282°
2026-04-30 09:34 22.03690 51.97968 35813 ft 480 kts 282°
2026-04-30 09:34 22.04958 51.90926 35813 ft 478 kts 282°
2026-04-30 09:35 22.06220 51.83889 35814 ft 478 kts 282°
2026-04-30 09:35 22.07471 51.76895 35814 ft 477 kts 282°
2026-04-30 09:36 22.08727 51.69863 35817 ft 477 kts 282°
2026-04-30 09:36 22.09978 51.62839 35819 ft 477 kts 282°
2026-04-30 09:37 22.11226 51.55811 35821 ft 477 kts 282°
2026-04-30 09:37 22.12471 51.48786 35822 ft 477 kts 282°
2026-04-30 09:38 22.13704 51.41812 35826 ft 476 kts 281°
2026-04-30 09:38 22.14939 51.34811 35827 ft 475 kts 281°
2026-04-30 09:39 22.16171 51.27803 35821 ft 475 kts 281°
2026-04-30 09:39 22.17400 51.20789 35830 ft 475 kts 281°
2026-04-30 09:40 22.18625 51.13788 35834 ft 475 kts 281°
2026-04-30 09:40 22.19839 51.06825 35831 ft 475 kts 281°
2026-04-30 09:41 22.21060 50.99813 35836 ft 475 kts 281°
2026-04-30 09:41 22.22277 50.92797 35837 ft 475 kts 281°
2026-04-30 09:42 22.23490 50.85789 35838 ft 474 kts 281°
2026-04-30 09:42 22.24691 50.78834 35836 ft 473 kts 281°
2026-04-30 09:43 22.25895 50.71842 35842 ft 473 kts 281°
2026-04-30 09:43 22.27094 50.64857 35841 ft 473 kts 281°
2026-04-30 09:44 22.28291 50.57865 35842 ft 473 kts 281°
2026-04-30 09:44 22.29486 50.50869 35846 ft 473 kts 281°
2026-04-30 09:45 22.30670 50.43918 35850 ft 473 kts 281°
2026-04-30 09:45 22.31858 50.36927 35849 ft 473 kts 281°
2026-04-30 09:46 22.33042 50.29937 35851 ft 472 kts 280°
2026-04-30 09:46 22.34223 50.22955 35849 ft 472 kts 280°
2026-04-30 09:47 22.35390 50.16025 35849 ft 471 kts 280°
2026-04-30 09:47 22.36560 50.09065 35849 ft 471 kts 280°
2026-04-30 09:48 22.37726 50.02104 35848 ft 471 kts 280°
2026-04-30 09:48 22.38889 49.95145 35848 ft 471 kts 280°
2026-04-30 09:49 22.40049 49.88186 35848 ft 471 kts 280°
2026-04-30 09:49 22.41207 49.81212 35848 ft 471 kts 280°
2026-04-30 09:50 22.42355 49.74286 35846 ft 471 kts 280°
2026-04-30 09:50 22.43508 49.67318 35854 ft 470 kts 280°
2026-04-30 09:51 22.44655 49.60362 35852 ft 470 kts 280°
2026-04-30 09:51 22.45799 49.53400 35854 ft 470 kts 280°
2026-04-30 09:52 22.46940 49.46445 35854 ft 469 kts 280°
2026-04-30 09:52 22.48075 49.39498 35853 ft 469 kts 280°
2026-04-30 09:53 22.49202 49.32588 35853 ft 469 kts 280°
2026-04-30 09:53 22.50332 49.25633 35872 ft 469 kts 280°
2026-04-30 09:54 22.51456 49.18710 35854 ft 466 kts 280°
2026-04-30 09:54 22.52571 49.11812 35855 ft 465 kts 280°
2026-04-30 09:55 22.53684 49.04909 35857 ft 465 kts 280°
2026-04-30 09:55 22.54784 48.98061 35861 ft 465 kts 280°
2026-04-30 09:56 22.55889 48.91168 35855 ft 465 kts 280°
2026-04-30 09:56 22.56992 48.84266 35855 ft 465 kts 280°
2026-04-30 09:57 22.58092 48.77367 35854 ft 465 kts 280°
2026-04-30 09:57 22.59183 48.70507 35855 ft 464 kts 279°
2026-04-30 09:58 22.60275 48.63623 35863 ft 463 kts 279°
2026-04-30 09:58 22.61362 48.56748 35864 ft 463 kts 279°
2026-04-30 09:59 22.63518 48.43046 35863 ft 463 kts 279°
2026-04-30 10:00 22.65132 48.32741 35866 ft 463 kts 279°
2026-04-30 10:01 22.66739 48.22433 35868 ft 463 kts 279°
2026-04-30 10:02 22.68337 48.12147 35861 ft 461 kts 279°
2026-04-30 10:02 22.69395 48.05308 35866 ft 460 kts 279°
2026-04-30 10:03 22.70276 47.98485 35865 ft 460 kts 276°
2026-04-30 10:03 22.70774 47.91594 35858 ft 458 kts 275°
2026-04-30 10:04 22.71251 47.84717 35866 ft 458 kts 275°
2026-04-30 10:04 22.71789 47.77837 35871 ft 458 kts 276°
2026-04-30 10:05 22.72356 47.70973 35861 ft 457 kts 276°
2026-04-30 10:05 22.72926 47.64104 35867 ft 457 kts 275°
2026-04-30 10:06 22.73489 47.57257 35874 ft 456 kts 275°
2026-04-30 10:06 22.74043 47.50460 35880 ft 455 kts 275°
2026-04-30 10:07 22.74596 47.43624 35880 ft 455 kts 275°
2026-04-30 10:07 22.75146 47.36798 35881 ft 455 kts 275°
2026-04-30 10:08 22.75695 47.29957 35889 ft 455 kts 275°
2026-04-30 10:08 22.76240 47.23120 35888 ft 455 kts 275°
2026-04-30 10:09 22.76783 47.16283 35888 ft 455 kts 275°
2026-04-30 10:09 22.77326 47.09496 35890 ft 455 kts 275°
2026-04-30 10:10 22.77867 47.02650 35897 ft 455 kts 275°
2026-04-30 10:10 22.78404 46.95818 35898 ft 455 kts 275°
2026-04-30 10:11 22.78938 46.88993 35897 ft 455 kts 275°
2026-04-30 10:11 22.79470 46.82168 35902 ft 455 kts 275°
2026-04-30 10:12 22.79999 46.75338 35902 ft 455 kts 275°
2026-04-30 10:12 22.80525 46.68510 35904 ft 455 kts 275°
2026-04-30 10:13 22.81046 46.61714 35914 ft 455 kts 275°
2026-04-30 10:13 22.81567 46.54872 35912 ft 455 kts 275°
2026-04-30 10:14 22.82083 46.48069 35919 ft 455 kts 275°
2026-04-30 10:14 22.82854 46.37840 35919 ft 453 kts 275°
2026-04-30 10:15 22.83364 46.31015 35917 ft 454 kts 275°
2026-04-30 10:15 22.83865 46.24185 35911 ft 454 kts 275°
2026-04-30 10:16 22.84360 46.17403 35909 ft 454 kts 275°
2026-04-30 10:17 22.85107 46.07154 35902 ft 455 kts 275°
2026-04-30 10:17 22.85849 45.96886 35896 ft 455 kts 275°
2026-04-30 10:18 22.86339 45.90050 35898 ft 454 kts 274°
2026-04-30 10:19 22.87064 45.79861 35889 ft 453 kts 274°
2026-04-30 10:19 22.87545 45.73037 35889 ft 453 kts 274°
2026-04-30 10:20 22.88024 45.66207 35895 ft 454 kts 274°
2026-04-30 10:20 22.88736 45.55981 35891 ft 454 kts 274°
2026-04-30 10:21 22.89205 45.49196 35894 ft 454 kts 274°
2026-04-30 10:21 22.89675 45.42361 35892 ft 454 kts 274°
2026-04-30 10:22 22.90142 45.35539 35892 ft 453 kts 274°
2026-04-30 10:22 22.90604 45.28741 35881 ft 451 kts 274°
2026-04-30 10:23 22.91057 45.22001 35891 ft 450 kts 274°
2026-04-30 10:23 22.91509 45.15225 35887 ft 451 kts 274°
2026-04-30 10:24 22.91961 45.08433 35885 ft 451 kts 274°
2026-04-30 10:24 22.92409 45.01654 35886 ft 450 kts 274°
2026-04-30 10:25 22.92778 44.96021 35886 ft 450 kts 274°
2026-04-30 10:25 22.93219 44.89239 35886 ft 450 kts 274°
2026-04-30 10:26 22.93657 44.82461 35892 ft 450 kts 274°
2026-04-30 10:26 22.94093 44.75690 35892 ft 450 kts 274°
2026-04-30 10:27 22.94590 44.68915 35904 ft 451 kts 278°
2026-04-30 10:27 22.96110 44.62317 35891 ft 453 kts 286°
2026-04-30 10:28 22.98094 44.55784 35896 ft 457 kts 288°
2026-04-30 10:28 23.00129 44.49314 35901 ft 456 kts 288°
2026-04-30 10:29 23.02163 44.42788 35906 ft 456 kts 287°
2026-04-30 10:29 23.04175 44.36260 36148 ft 455 kts 287°
2026-04-30 10:30 23.06160 44.29781 36349 ft 454 kts 287°